When you browse on this site, cookies collect data to enhance your experience and personalize the content and advertising you see.
Visit our Privacy Policy to learn more. By continuing to use the site, you agree to this use of cookies and data.
  • Em Portugal
  • Lista de países
  • Para 7 dias
  • Temperatura da água
  • Mapas de satélite
  • Mapa do tempo
  • Widgets de tempo
  • user-avatar
    Iniciar Sessão

    Previsão horária em Karak

    Hoje, 20 Novembro, Terça-feira

    Tempo Temperatura Precipitação Vento Pressão Humidade
    00:00 +15°C° 0 mm 1 m/s 684 mmHg 60%
    01:00 +14°C° 0 mm 1 m/s 684 mmHg 62%
    02:00 +14°C° 0 mm 1 m/s 684 mmHg 64%
    03:00 +14°C° 0 mm 1 m/s 684 mmHg 65%
    04:00 +14°C° 0 mm 1 m/s 685 mmHg 67%
    05:00 +13°C° 0 mm 1 m/s 685 mmHg 68%
    06:00 +14°C° 0 mm 1 m/s 685 mmHg 64%
    07:00 +15°C° 0 mm 1 m/s 686 mmHg 61%
    08:00 +16°C° 0 mm 1 m/s 686 mmHg 56%
    09:00 +19°C° 0 mm 1 m/s 686 mmHg 52%
    10:00 +20°C° 0 mm 1 m/s 686 mmHg 48%
    11:00 +21°C° 0 mm 1 m/s 687 mmHg 44%
    12:00 +21°C° 0 mm 1 m/s 686 mmHg 42%
    13:00 +22°C° 0 mm 1 m/s 686 mmHg 40%
    14:00 +22°C° 0 mm 1 m/s 686 mmHg 38%
    15:00 +21°C° 0 mm 1 m/s 686 mmHg 40%
    16:00 +21°C° 0 mm 1 m/s 685 mmHg 43%
    17:00 +20°C° 0 mm 1 m/s 685 mmHg 46%
    18:00 +19°C° 0 mm 1 m/s 685 mmHg 47%
    19:00 +19°C° 0 mm 1 m/s 685 mmHg 49%
    20:00 +18°C° 0 mm 1 m/s 685 mmHg 50%
    21:00 +18°C° 0 mm 1 m/s 685 mmHg 51%
    22:00 +16°C° 0 mm 1 m/s 685 mmHg 51%
    23:00 +16°C° 0 mm 1 m/s 685 mmHg 52%

    Amanhã, 21 Novembro, Quarta-feira

    Tempo Temperatura Precipitação Vento Pressão Humidade
    00:00 +15°C° 0 mm 1 m/s 685 mmHg 52%
    01:00 +15°C° 0 mm 1 m/s 684 mmHg 53%
    02:00 +15°C° 0 mm 1 m/s 684 mmHg 54%
    03:00 +14°C° 0 mm 1 m/s 684 mmHg 55%
    04:00 +14°C° 0 mm 1 m/s 684 mmHg 56%
    05:00 +13°C° 0 mm 1 m/s 683 mmHg 58%
    06:00 +15°C° 0 mm 1 m/s 684 mmHg 54%
    07:00 +16°C° 0 mm 1 m/s 684 mmHg 51%
    08:00 +18°C° 0 mm 1 m/s 684 mmHg 48%
    09:00 +19°C° 0 mm 1 m/s 685 mmHg 44%
    10:00 +20°C° 0 mm 1 m/s 685 mmHg 40%
    11:00 +21°C° 0 mm 1 m/s 685 mmHg 36%
    12:00 +20°C° 0 mm 2 m/s 684 mmHg 33%
    13:00 +20°C° 0 mm 2 m/s 684 mmHg 31%
    14:00 +21°C° 0 mm 2 m/s 683 mmHg 29%
    15:00 +20°C° 0 mm 2 m/s 683 mmHg 31%
    16:00 +19°C° 0 mm 2 m/s 683 mmHg 34%
    17:00 +18°C° 0 mm 2 m/s 683 mmHg 36%
    18:00 +18°C° 0 mm 1 m/s 683 mmHg 38%
    19:00 +18°C° 0 mm 1 m/s 683 mmHg 39%
    20:00 +16°C° 0 mm 1 m/s 683 mmHg 41%
    21:00 +16°C° 0 mm 1 m/s 683 mmHg 41%
    22:00 +16°C° 0 mm 1 m/s 683 mmHg 42%
    23:00 +16°C° 0 mm 1 m/s 683 mmHg 42%

    Depois de amanhã, 22 Novembro, Quinta-feira

    Tempo Temperatura Precipitação Vento Pressão Humidade
    00:00 +16°C° 0 mm 1 m/s 682 mmHg 43%
    01:00 +16°C° 0 mm 1 m/s 682 mmHg 44%
    02:00 +16°C° 0 mm 1 m/s 682 mmHg 45%
    03:00 +15°C° 0 mm 1 m/s 682 mmHg 46%
    04:00 +15°C° 0 mm 1 m/s 682 mmHg 47%
    05:00 +15°C° 0 mm 1 m/s 681 mmHg 48%
    06:00 +15°C° 0 mm 1 m/s 682 mmHg 45%
    07:00 +16°C° 0 mm 1 m/s 682 mmHg 43%
    08:00 +18°C° 0 mm 1 m/s 683 mmHg 40%
    09:00 +19°C° 0 mm 1 m/s 683 mmHg 38%
    10:00 +19°C° 0 mm 1 m/s 682 mmHg 36%
    11:00 +19°C° 0 mm 2 m/s 682 mmHg 34%
    12:00 +19°C° 0 mm 2 m/s 682 mmHg 33%
    13:00 +19°C° 0 mm 2 m/s 681 mmHg 33%
    14:00 +20°C° 0 mm 2 m/s 681 mmHg 33%
    15:00 +19°C° 0 mm 2 m/s 681 mmHg 35%
    16:00 +18°C° 0 mm 2 m/s 681 mmHg 38%
    17:00 +19°C° 0 mm 1 m/s 681 mmHg 40%
    18:00 +18°C° 0 mm 1 m/s 681 mmHg 43%
    19:00 +16°C° 0 mm 1 m/s 681 mmHg 45%
    20:00 +16°C° 0 mm 1 m/s 681 mmHg 47%
    21:00 +15°C° 0 mm 1 m/s 681 mmHg 48%
    22:00 +15°C° 0 mm 1 m/s 681 mmHg 48%
    23:00 +14°C° 0 mm 1 m/s 681 mmHg 49%

    23 Novembro, Sexta-feira

    Tempo Temperatura Precipitação Vento Pressão Humidade
    00:00 +14°C° 0 mm 1 m/s 680 mmHg 50%
    01:00 +13°C° 0 mm 1 m/s 680 mmHg 50%
    02:00 +13°C° 0 mm 1 m/s 680 mmHg 51%
    03:00 +13°C° 0 mm 1 m/s 679 mmHg 53%
    04:00 +12°C° 0 mm 1 m/s 679 mmHg 54%
    05:00 +12°C° 0 mm 1 m/s 679 mmHg 56%
    06:00 +13°C° 0 mm 2 m/s 680 mmHg 54%
    07:00 +13°C° 0 mm 2 m/s 680 mmHg 52%
    08:00 +14°C° 0 mm 2 m/s 681 mmHg 51%
    09:00 +15°C° 0 mm 2 m/s 681 mmHg 50%
    10:00 +14°C° 0 mm 3 m/s 681 mmHg 49%
    11:00 +16°C° 0 mm 3 m/s 681 mmHg 48%
    12:00 +16°C° 0 mm 3 m/s 680 mmHg 46%
    13:00 +15°C° 0 mm 4 m/s 680 mmHg 45%
    14:00 +15°C° 0 mm 4 m/s 679 mmHg 44%
    15:00 +16°C° 0 mm 3 m/s 679 mmHg 46%
    16:00 +14°C° 0 mm 3 m/s 679 mmHg 49%
    17:00 +13°C° 0 mm 3 m/s 679 mmHg 51%
    18:00 +13°C° 0.1 mm 3 m/s 680 mmHg 54%
    19:00 +14°C° 0.1 mm 2 m/s 680 mmHg 56%
    20:00 +13°C° 0.1 mm 2 m/s 680 mmHg 58%
    21:00 +13°C° 0.1 mm 2 m/s 680 mmHg 60%
    22:00 +12°C° 0.1 mm 2 m/s 680 mmHg 62%
    23:00 +12°C° 0.1 mm 2 m/s 680 mmHg 64%

    24 Novembro, Sábado

    Tempo Temperatura Precipitação Vento Pressão Humidade
    00:00 +12°C° 0.2 mm 2 m/s 680 mmHg 65%
    01:00 +10°C° 0.2 mm 2 m/s 679 mmHg 67%
    02:00 +10°C° 0.2 mm 2 m/s 679 mmHg 68%
    03:00 +11°C° 0.1 mm 1 m/s 679 mmHg 69%
    04:00 +10°C° 0.1 mm 1 m/s 679 mmHg 70%
    05:00 +10°C° 0.1 mm 1 m/s 679 mmHg 71%
    06:00 +11°C° 0 mm 1 m/s 680 mmHg 68%
    07:00 +11°C° 0 mm 1 m/s 680 mmHg 65%
    08:00 +12°C° 0 mm 1 m/s 681 mmHg 62%
    09:00 +13°C° 0 mm 1 m/s 681 mmHg 58%
    10:00 +13°C° 0 mm 2 m/s 681 mmHg 54%
    11:00 +14°C° 0 mm 2 m/s 681 mmHg 50%
    12:00 +15°C° 0 mm 2 m/s 681 mmHg 49%
    13:00 +15°C° 0 mm 2 m/s 681 mmHg 47%
    14:00 +14°C° 0 mm 3 m/s 680 mmHg 45%
    15:00 +15°C° 0 mm 2 m/s 680 mmHg 47%
    16:00 +14°C° 0 mm 2 m/s 680 mmHg 50%
    17:00 +14°C° 0 mm 2 m/s 681 mmHg 52%
    18:00 +13°C° 0 mm 2 m/s 681 mmHg 55%
    19:00 +13°C° 0 mm 1 m/s 681 mmHg 57%
    20:00 +12°C° 0 mm 1 m/s 681 mmHg 60%
    21:00 +12°C° 0 mm 1 m/s 681 mmHg 61%
    22:00 +12°C° 0 mm 1 m/s 681 mmHg 63%
    23:00 +10°C° 0 mm 0 m/s 681 mmHg 65%

    25 Novembro, Domingo

    Tempo Temperatura Precipitação Vento Pressão Humidade
    00:00 +11°C° 0 mm 1 m/s 681 mmHg 66%
    01:00 +11°C° 0 mm 1 m/s 681 mmHg 68%
    02:00 +11°C° 0 mm 1 m/s 681 mmHg 70%
    03:00 +10°C° 0 mm 1 m/s 681 mmHg 71%
    04:00 +10°C° 0 mm 1 m/s 681 mmHg 73%
    05:00 +9°C° 0 mm 2 m/s 681 mmHg 75%
    06:00 +9°C° 0 mm 2 m/s 681 mmHg 74%
    07:00 +10°C° 0 mm 2 m/s 682 mmHg 72%
    08:00 +11°C° 0 mm 1 m/s 682 mmHg 71%
    09:00 +12°C° 0 mm 2 m/s 682 mmHg 67%
    10:00 +13°C° 0 mm 2 m/s 682 mmHg 64%
    11:00 +14°C° 0 mm 2 m/s 683 mmHg 60%
    12:00 +14°C° 0 mm 3 m/s 682 mmHg 58%
    13:00 +14°C° 0 mm 3 m/s 682 mmHg 56%
    14:00 +14°C° 0 mm 3 m/s 682 mmHg 54%
    15:00 +14°C° 0 mm 3 m/s 682 mmHg 57%
    16:00 +14°C° 0 mm 2 m/s 682 mmHg 59%
    17:00 +14°C° 0 mm 2 m/s 682 mmHg 62%
    18:00 +13°C° 0 mm 2 m/s 682 mmHg 64%
    19:00 +13°C° 0 mm 1 m/s 683 mmHg 67%
    20:00 +12°C° 0 mm 1 m/s 683 mmHg 69%
    21:00 +12°C° 0 mm 1 m/s 683 mmHg 70%
    22:00 +11°C° 0 mm 1 m/s 683 mmHg 72%
    23:00 +11°C° 0 mm 1 m/s 683 mmHg 73%
    Mostrar mais